Weather History for West Plains, MO

Change the Weather History Date:

Saturday, January 11, 2014

  Actual Average Record
Temperature  
Mean Temperature 40 °F 34 °F  
Max Temperature 50 °F 44 °F 67 °F (2005)
Min Temperature 30 °F 23 °F -15 °F (1977)
Degree Days  
Heating Degree Days 25 31  
Month to date heating degree days 436 341  
Since 1 July heating degree days 2193 2086  
Cooling Degree Days 0 0  
Month to date cooling degree days 0 0  
Year to date cooling degree days 0 0  
Moisture  
Dew Point 32 °F    
Average Humidity 71    
Maximum Humidity 96    
Minimum Humidity 46    
Precipitation  
Precipitation 0.00 in 0.07 in 0.60 in (1991)
Month to date precipitation 1.57 0.71  
Year to date precipitation 1.57 0.71  
Sea Level Pressure  
Sea Level Pressure 29.83 in    
Wind  
Wind Speed 10 mph (West)    
Max Wind Speed 20 mph    
Max Gust Speed 28 mph    
Visibility 8 miles    
Events      
T = Trace of Precipitation, MM = Missing Value Source: NWS Daily Summary

Daily Weather History Graph

Daily Weather History Graph

Search for Another Location

Airport:

Trip Planner

Search our weather history database for the weather conditions in past years. The results will help you decide how hot, cold, wet, or windy it might be!

Date:

Astronomy

Jan. 11, 2014 Rise Set
Actual Time 7:20 AM CST 5:10 PM CST
Civil Twilight 6:52 AM CST 5:39 PM CST
Nautical Twilight 6:20 AM CST 6:11 PM CST
Astronomical Twilight 5:48 AM CST 6:42 PM CST
Moon 1:54 PM CST (1/11) 3:26 AM CST (1/11)
Length of Visible Light 10h 47m
Length of Day
9h 50m
Waxing Gibbous, 83% of the Moon is Illuminated
Jan 11
Waxing Gibbous
Jan 15
Full
Jan 23
Last Quarter
Jan 30
New
Feb 6
First Quarter

Hourly Weather History & Observations

Time (CST) Temp. Windchill Dew Point Humidity Pressure Visibility Wind Dir Wind Speed Gust Speed Precip Events Conditions
12:53 AM 39.0 °F 34.0 °F 36.0 °F 89% 29.66 in 10.0 mi West 6.9 mph - N/A   Clear
1:53 AM 37.9 °F 30.9 °F 35.1 °F 89% 29.68 in 10.0 mi West 10.4 mph - N/A   Clear
2:53 AM 36.0 °F 30.3 °F 33.1 °F 89% 29.69 in 8.0 mi West 6.9 mph - N/A   Clear
3:53 AM 34.0 °F 28.8 °F 32.0 °F 92% 29.70 in 6.0 mi West 5.8 mph - N/A   Clear
4:53 AM 34.0 °F 27.2 °F 32.0 °F 92% 29.72 in 5.0 mi West 8.1 mph - N/A   Clear
5:53 AM 34.0 °F 26.6 °F 32.0 °F 92% 29.74 in 5.0 mi West 9.2 mph - N/A   Partly Cloudy
6:39 AM 35.1 °F 28.6 °F 33.1 °F 92% 29.75 in 5.0 mi West 8.1 mph - N/A   Overcast
6:53 AM 35.1 °F 28.6 °F 33.1 °F 92% 29.76 in 5.0 mi WSW 8.1 mph - N/A   Mostly Cloudy
7:09 AM 35.1 °F 27.9 °F 33.1 °F 92% 29.75 in 5.0 mi West 9.2 mph - N/A   Overcast
7:53 AM 35.1 °F 28.6 °F 33.1 °F 92% 29.79 in 4.0 mi West 8.1 mph - N/A   Overcast
8:53 AM 36.0 °F 26.7 °F 33.1 °F 89% 29.82 in 4.0 mi West 15.0 mph 20.7 mph N/A   Overcast
9:53 AM 37.0 °F 29.3 °F 34.0 °F 89% 29.86 in 5.0 mi West 11.5 mph 21.9 mph N/A   Overcast
10:30 AM 39.0 °F 32.3 °F 35.1 °F 86% 29.85 in 6.0 mi WNW 10.4 mph - N/A   Overcast
10:53 AM 39.0 °F 31.0 °F 35.1 °F 86% 29.86 in 7.0 mi WNW 13.8 mph 18.4 mph N/A   Scattered Clouds
11:53 AM 44.1 °F 37.7 °F 35.1 °F 71% 29.84 in 10.0 mi West 12.7 mph - N/A   Clear
12:53 PM 46.9 °F - 35.1 °F 63% 29.82 in 10.0 mi West 8.1 mph - N/A   Clear
1:53 PM 48.0 °F - 32.0 °F 54% 29.83 in 10.0 mi West 13.8 mph 19.6 mph N/A   Clear
2:53 PM 50.0 °F - 30.9 °F 48% 29.84 in 10.0 mi West 19.6 mph 27.6 mph N/A   Partly Cloudy
3:53 PM 50.0 °F - 32.0 °F 50% 29.85 in 10.0 mi WSW 13.8 mph 18.4 mph N/A   Clear
4:53 PM 48.0 °F - 30.0 °F 50% 29.87 in 10.0 mi West 11.5 mph - N/A   Clear
5:53 PM 46.0 °F 41.4 °F 30.0 °F 54% 29.90 in 10.0 mi West 9.2 mph - N/A   Scattered Clouds
6:53 PM 44.1 °F 38.1 °F 30.0 °F 58% 29.94 in 10.0 mi WNW 11.5 mph - N/A   Clear
7:53 PM 39.9 °F 35.1 °F 30.9 °F 70% 29.97 in 10.0 mi West 6.9 mph - N/A   Clear
8:53 PM 37.9 °F 32.7 °F 30.0 °F 73% 29.99 in 10.0 mi West 6.9 mph - N/A   Clear
9:53 PM 36.0 °F 31.1 °F 30.0 °F 79% 30.00 in 10.0 mi West 5.8 mph - N/A   Clear
10:53 PM 33.1 °F 27.7 °F 28.0 °F 82% 30.01 in 10.0 mi WSW 5.8 mph - N/A   Clear
11:53 PM 30.9 °F 27.5 °F 27.0 °F 85% 30.00 in 10.0 mi West 3.5 mph - N/A   Clear